Showing default

SHIYAN 9 (SY-9), 47851

Orbit data source: Space-Track

SHIYAN 9 (SY-9), 47851 is a payload satellite owned by CAST (CN) in GEO that was launched on Thu, 11 Mar 2021 UTC via a CHANG ZHENG 7A launch vehicle from the Wenchang Satellite Launch Center (WSC). Payload-class satellites include a variety of spacecraft equipped with specific instruments for various scientific and technological missions. These include communications satellites like Starlink; space stations such as the ISS; scientific satellites like the Hubble; Earth observation satellites from companies like Planet Labs, Umbra, and HawkEye 360; GPS; miniature CubeSats for education and research; and military/defense satellites.

Not visible in the next 10 days
Identifier
47851, 2021-019A
Orbit
GEO
Country
Flag of CNCN / PRC
Related business
Manufacturer
CAST
Mission
Operational Defense Technology
Bus & Motor
XYZ, Unknown motor
Mass
~5,000 kg wet, ~3,000 kg dry
Launch date (UTC)
2021-03-11 (5 years ago)
Launch vehicle
CHANG ZHENG 7A
Launch site
Wenchang Satellite Launch Center (WSC)
Object type
Payload
Rocket body
Debris
Shape & HBR
Box + 2 Pan, 4.5 m
Radar Cross Section
24.336 m², Large (>1 m²)

Expand to show TLE details & history
Last TLE update: 1 day ago

TLE from 1 day ago
0 SHIYAN 9 (SY-9)
1 47851U 21019A   26172.35519120 -.00000243  00000-0  00000+0 0  9991
2 47851  16.5171 302.3924 0014010  26.1165 215.8143  1.00271144 24176
Epoch: 2026-06-21T08:31Z
TLE epoch observation values (Epoch: 2026-06-21T08:31:28.519Z)
Latitude
-14.54267°
Longitude
145.78934°
Altitude
35,837.241 km
Speed
3.071 km/s
True Right ascension
12h 12m 51s
True Declination
-14° 31' 43"
Sunlit
Object was in daylight at epoch
Visualization orbit readout
Latitude
Unknown
Longitude
Unknown
Altitude
Unknown
Speed
Unknown
Apparent Right ascension
Unknown
Apparent Declination
Unknown
Sunlit
N/A
Visualization observer readout
Local Sidereal Time
21:32:41
Azimuth
Unknown
Elevation
Unknown
Doppler factor
Unknown
Orbital elements
Apogee altitude
35,846.793 km
Perigee altitude
35,728.644 km
Semi-major axis
42,165.855 km
Eccentricity
0.0014
Inclination
16.5171°
RAAN
302.3924°
Arg. of periapsis
26.1165°
True anomaly
215.72049°
Mean anomaly
215.8143°
Eccentric anomaly
215.76738°
Mean motion
0.25067 °/min
Orbital period
1,436.15 mins
BSTAR
0
Loading maneuver chart data...
Computing Atmospheric mass density...
Loading historical data...
Loading historical data...
Loading historical data...
Loading historical data...
Loading historical data...
Loading historical data...
Loading historical data...
Other satellites on launch #19 in the year 2021 (2021-03-11 UTC)

Documentation

Showing up to 5 results
|